Location: Gwatt
(46.7204°N, 7.6223°E)
Time: 22:41:51
(UTC+00:00)

Tiros 1 despin weight - Pass Details

Date: 26 January 2021
Orbit: 593 x 642 km, 48.2° (Epoch: 08 March)

Event Time Altitude Azimuth Distance (km) Brightness Sun altitude
Rises 19:09:44 0° 284° (WNW) 2,851 ? -28.3°
Reaches altitude 10° 19:12:25 10° 270° (W) 1,937 ? -28.7°
Maximum altitude 19:15:51 22° 219° (SW) 1,306 ? -29.3°
Enters shadow 19:16:02 22° 215° (SW) 1,308 ? -29.3°
